Regional Weather Roundup
Issued by NWS San Angelo, TX

Home | Current Version | Previous Version | Text Only | Print | Product List | Glossary On
Versions: 1 2 3 4 5 6 7 8 9 10 11 12 13 14 15 16 17 18 19 20 21 22 23 24 25 26 27 28 29 30 31 32 33 34 35 36 37 38 39 40 41 42 43 44 45 46 47 48 49 50
000
ASUS44 KSJT 171615
RWRSJT
WEST CENTRAL TEXAS REGIONAL WEATHER ROUNDUP
NATIONAL WEATHER SERVICE SAN ANGELO TX
1100 AM CDT THU JUN 17 2021

NOTE: "FAIR" INDICATES FEW OR NO CLOUDS BELOW 12,000 FEET WITH NO
SIGNIFICANT WEATHER AND/OR OBSTRUCTIONS TO VISIBILITY.

TXZ049-054-064>066-071>073-076>078-098-099-113-114-127-128-139-140-
154-155-168>170-171700-
...LOCATIONS ACROSS WEST CENTRAL TEXAS...

CITY           SKY/WX    TMP DP  RH WIND       PRES   REMARKS
SAN ANGELO     SUNNY     86  65  49 CALM      30.09F
ABILENE        SUNNY     87  67  51 SW7       30.09F
DYESS AFB      SUNNY     88  61  40 S7        30.08F
JUNCTION       SUNNY     84  65  52 VRB3      30.10F
SWEETWATER     SUNNY     85  64  49 S9        30.13F
BROWNWOOD      NOT AVBL
COLEMAN        NOT AVBL
SONORA         SUNNY     84  63  48 CALM      30.15F
OZONA          FAIR      84  59  42 S13       30.14F
BRADY          SUNNY     84  64  51 VRB6      30.10S
$$

TXZ001-004-007-008-010-012-014-016-OKZ002-171700-
TEXAS PANHANDLE/OKLAHOMA PANHANDLE

CITY           SKY/WX    TMP DP  RH WIND       PRES   REMARKS
AMARILLO       SUNNY     86  56  35 SW18G31   30.11F
BORGER         SUNNY     91  55  29 SW15G28   30.07F
CANADIAN       SUNNY     88  60  38 SW12G17   30.04F
DALHART        SUNNY     88  51  28 SW20G26   30.11F
DUMAS          SUNNY     85  52  31 S22       30.11S
GUYMON         NOT AVBL
HEREFORD       SUNNY     89  53  28 SW18G25   30.15F
PAMPA          SUNNY     90  58  34 SW16      30.10S
PERRYTON       SUNNY     88  51  28 SW20      30.05S
$$

TXZ035-026-045-048-171700-
SOUTHERN PANHANDLE/SOUTH PLAINS/ROLLING PLAINS

CITY           SKY/WX    TMP DP  RH WIND       PRES   REMARKS
LUBBOCK        MOSUNNY   86  56  35 SW13      30.13F
SNYDER         SUNNY     88  63  42 SW10      30.11
CHILDRESS      SUNNY     90  61  37 W12       30.06F
SEMINOLE       SUNNY     85  56  37 S6        30.19F
$$

TXZ060>062-171700-
PERMIAN BASIN

CITY           SKY/WX    TMP DP  RH WIND       PRES   REMARKS
MIDLAND        SUNNY     84  58  40 S10       30.13S
ODESSA         SUNNY     84  56  38 VRB7      30.14F
WINK           SUNNY     87  55  33 S10       30.10F
$$

TXZ075-082-271-274-277-419-171700-
FAR WEST/SOUTHWEST MOUNTAINS/TRANS PECOS

CITY           SKY/WX    TMP DP  RH WIND       PRES   REMARKS
ALPINE         SUNNY     80  50  35 NE6       30.26F
DRYDEN           N/A     85  62  46 E10G17    30.11F
EL PASO        SUNNY     84  44  24 S10       30.14F
FORT STOCKTON  SUNNY     85  54  34 SE9       30.12F
GUADALUPE PASS SUNNY     77  32  19 SW8       30.28S
MARFA          SUNNY     78  49  35 SE8       30.25F
PECOS          SUNNY     88  49  26 SE9       30.10F
$$

TXZ118-119-171700-
DALLAS/FORT WORTH METROPLEX

CITY           SKY/WX    TMP DP  RH WIND       PRES   REMARKS
DFW AIRPORT    MOSUNNY   91  66  43 SW5       30.01F
FTW MEACHAM    SUNNY     88  69  53 S7        30.02F
DAL-EXECUTIVE  SUNNY     91  68  46 SW5       30.01F
GRAND PRAIRIE  SUNNY     90  64  43 S3        30.03F
ADDISON        SUNNY     90  66  45 SW6       30.03F
MESQUITE       SUNNY     90  68  48 SW6       30.02F
LANCASTER      SUNNY     89  70  52 CALM      30.02F
$$

TXZ092-093-103-131-134-171700-
NORTH CENTRAL TEXAS

CITY           SKY/WX    TMP DP  RH WIND       PRES   REMARKS
SHRMAN/DENISON SUNNY     90  72  55 W7        30.04F
GAINESVILLE    SUNNY     89  68  49 W7        30.05F
BRIDGEPORT     SUNNY     88  68  50 SW6       30.06S
DENTON         SUNNY     91  69  48 S7        30.03F
WAXAHACHIE     SUNNY     90  70  52 CALM      30.04S
GRANBURY       SUNNY     91  65  42 S8        30.05S
$$

TXZ085-086-115-141-171700-
WESTERN NORTH TEXAS

CITY           SKY/WX    TMP DP  RH WIND       PRES   REMARKS
WICHITA FALLS  MOSUNNY   90  69  50 SW12      30.03F
VERNON         NOT AVBL
BRECKENRIDGE   SUNNY     89  67  47 S8        30.06S HAZE
COMANCHE       SUNNY     87  68  54 CALM      30.08F
$$

TXZ145-158-159-173-191-192-194-205-207-220-223-171700-
CENTRAL AND SOUTH CENTRAL TEXAS

CITY           SKY/WX    TMP DP  RH WIND       PRES   REMARKS
AUSTIN/BERGSTM MOSUNNY   88  71  57 E6        30.02S
WACO           SUNNY     91  71  51 NW3       30.02F
HILLSBORO      SUNNY     90  72  54 S5        30.02F
TEMPLE         SUNNY     89  70  53 E6        30.04F
KILLEEN-GRAY   SUNNY     88  67  48 E6        30.04S
FORT HOOD      MOSUNNY   88  68  51 SE5       30.05S
GEORGETOWN     SUNNY     90  70  51 NE8       30.06S
LAGO VISTA     FAIR      91  68  46 CALM      30.07S
SAN MARCOS     SUNNY     89  73  59 CALM      30.04S
NEW BRAUNFELS  SUNNY     89  71  55 VRB3      30.02S
RANDOLPH AFB   SUNNY     88  71  57 SE5       30.02S
SAN ANTONIO    MOSUNNY   88  71  57 E8        30.04S
STINSON        SUNNY     92  73  53 E8        30.01S
PLEASANTON     NOT AVBL
LA GRANGE      SUNNY     90  76  63 NE3       30.00S
GIDDINGS       SUNNY     88  73  59 NE3       30.03S
$$

TXZ095-096-136-137-148-152-171700-
EAST TEXAS

CITY           SKY/WX    TMP DP  RH WIND       PRES   REMARKS
PARIS          SUNNY     91  72  53 W3        30.03S
CLARKSVILLE    NOT AVBL
TYLER          MOSUNNY   88  73  61 S5        30.02F
LONGVIEW       SUNNY     85  66  53 VRB5      30.03F
PALESTINE      SUNNY    N/A N/A N/A CALM      30.02S
NACOGDOCHES    MOSUNNY   85  66  53 SE8       30.05R
$$

TXZ171-183-184-186-188-203-204-171700-
TEXAS HILL COUNTRY AND EDWARDS PLATEAU

CITY           SKY/WX    TMP DP  RH WIND       PRES   REMARKS
LLANO          SUNNY     84  68  58 CALM      30.06S
HORSESHOE BAY  FAIR      86  69  55 CALM      30.07S
KERRVILLE      MOSUNNY   84  72  65 SE8       30.09S
FREDERICKSBRG  SUNNY     84  65  53 SE5       30.09F
ROCKSPRINGS      N/A     84  63  48 MISG      30.16F
HONDO          SUNNY     87  72  60 E7        30.05S
UVALDE         SUNNY     85  72  63 SE6       30.06F
DEL RIO        SUNNY     89  67  47 S6        30.04S
$$

TXZ163-177-195>197-199-213-226-237-171700-
SOUTHEAST TEXAS

CITY           SKY/WX    TMP DP  RH WIND       PRES   REMARKS
COLLEGE STN    SUNNY     92  73  53 VRB3      30.00F
CALDWELL       SUNNY     89  72  57 E5        30.02S
CROCKETT       SUNNY     86  70  58 SE6       30.02S
BRENHAM        SUNNY     90  74  59 CALM      30.02S
HUNTSVILLE     SUNNY     90  73  57 VRB3      30.01F
CONROE         SUNNY     87  68  52 E6        30.02S
HOUSTON BUSH   MOSUNNY   89  67  47 E10       30.00F
HOUSTON HOBBY  MOSUNNY   91  64  40 E8        29.98F
PERLAND        SUNNY     90  67  46 E13       30.00F
WHARTON        SUNNY     88  72  58 NE5       30.00F
$$

TXZ215-216-236-237-438-171700-
THE UPPER TEXAS COAST

CITY           SKY/WX    TMP DP  RH WIND       PRES   REMARKS
ORANGE         SUNNY     88  61  39 CALM      30.02S
PORT ARTHUR    SUNNY     88  66  48 E13       29.99S
GALVESTON      SUNNY     90  71  53 NE12      29.99S
ANGLETON       MOSUNNY   89  73  59 NE13      29.98F
BAY CITY       MOSUNNY   87  76  69 NE8       29.98F
$$

TXZ229-232-234-239-242-243-245-247-249-250-
253-255-257-343-347-443-171700-
TEXAS COASTAL BEND, RIO GRANDE PLAINS DEEP SOUTH TEXAS

CITY           SKY/WX    TMP DP  RH WIND       PRES   REMARKS
VICTORIA       MOSUNNY   90  75  61 VRB5      29.99F
BEEVILLE       FAIR      88  80  75 NE5       29.99F
ROCKPORT       MOSUNNY   89  77  67 E9        29.97F
PORT ARANSAS   MOSUNNY   86  77  72 NE13      29.99S
PORT LAVACA    SUNNY     90  75  60 NE8       29.99S
CORPUS CHRISTI PTSUNNY   89  76  65 NE10      29.99S
KINGSVILLE NAS PTSUNNY   88  74  63 NE7       29.99R
COTULLA        SUNNY     89  69  51 E9        30.02R
LAREDO         SUNNY     88  68  51 E10       30.01F
BROWNSVILLE    LGT RAIN  81  75  83 NE9       29.96S
PORT ISABEL    PTSUNNY   86  73  65 NE14G24   29.97R
HEBBRONVILLE   MOSUNNY   85  60  43 E9        30.03F
MCALLEN        MOSUNNY   88  72  58 NE8       29.98S
WESLACO        NOT AVBL
FALFURRIAS     MOSUNNY   84  72  66 E7        29.99S


USA.gov is the U.S. government's official web portal to all federal, state and local government web resources and services.